Location: Munkfors
(59.8343°N, 13.5455°E)
Time: 23:57:19
(UTC+01:00)

ISS - Visible Passes

Search period start: 01 March 2021 00:00
Search period end: 11 March 2021 00:00
Orbit: 417 x 422 km, 51.6° (Epoch: 01 March)

Date Brightness Start Highest point End Pass type
(mag) Time Alt. Az. Time Alt. Az. Time Alt. Az.
01 Mar -1.7 04:53:50 17° S 04:54:37 18° SSE 04:57:00 10° ESE visible
02 Mar -1.3 04:08:11 15° SE 04:08:11 15° SE 04:09:31 10° ESE visible
02 Mar -1.9 05:41:08 12° SW 05:43:24 20° S 05:45:59 10° SE visible
03 Mar -2.0 04:55:28 19° SSW 04:56:07 20° S 04:58:42 10° SE visible
04 Mar -1.6 04:09:47 18° SSE 04:09:47 18° SSE 04:11:20 10° SE visible
04 Mar -1.8 05:42:45 11° SW 05:44:54 18° SSW 05:47:17 10° SSE visible
05 Mar -2.0 04:57:05 19° SSW 04:57:37 20° S 05:00:08 10° SE visible
06 Mar -1.6 04:11:26 18° SSE 04:11:26 18° SSE 04:12:54 10° SE visible
06 Mar -1.5 05:44:30 10° SW 05:46:19 14° SSW 05:48:08 10° S visible
07 Mar -1.8 04:58:48 16° SSW 04:59:04 16° SSW 05:01:15 10° SSE visible
08 Mar -1.4 04:13:14 14° SSE 04:13:14 14° SSE 04:14:11 10° SSE visible
09 Mar -1.4 05:00:44 11° SSW 05:00:44 11° SSW 05:01:34 10° S visible
